Weather History for KO54 - May, 2012

Change the Weather History Date:

Thursday, May 10, 2012

  Actual Average (KRDD) Record (KRDD)
Temperature  
Mean Temperature 56 °F -  
Max Temperature 77 °F 79 °F 98 °F (1987)
Min Temperature 35 °F 52 °F 41 °F (2000)
Degree Days  
Heating Degree Days 9    
Cooling Degree Days 0    
Growing Degree Days 6 (Base 50)    
Moisture  
Dew Point 26 °F    
Average Humidity 42    
Maximum Humidity 87    
Minimum Humidity 11    
Precipitation  
Precipitation 0.00 in 0.06 in 0.42 in (2010)
Month to date precipitation 0.61  
Year to date precipitation 18.93  
Sea Level Pressure  
Sea Level Pressure 30.04 in    
Wind  
Wind Speed 2 mph (ENE)    
Max Wind Speed 7 mph    
Max Gust Speed -    
Visibility 10 miles    
Events      
T = Trace of Precipitation, MM = Missing Value Source: NWS Daily Summary

Daily Weather History Graph

Daily Weather History Graph

Search for Another Location

Airport or City:

Trip Planner

Search our weather history database for the weather conditions in past years. The results will help you decide how hot, cold, wet, or windy it might be!

Date:

Astronomy

May. 10, 2012 Rise Set
Actual Time 5:58 AM PDT 8:17 PM PDT
Civil Twilight 5:28 AM PDT 8:48 PM PDT
Nautical Twilight 4:50 AM PDT 9:26 PM PDT
Astronomical Twilight 4:08 AM PDT 10:08 PM PDT
Moon 12:20 AM PDT (5/10) 10:29 AM PDT (5/10)
Length of Visible Light 15h 20m
Length of Day
14h 18m
Waning Gibbous, 72% of the Moon is Illuminated
May 10
Waning Gibbous
May 12
Last Quarter
May 20
New
May 28
First Quarter
Jun 4
Full

Hourly Weather History & Observations

Time (PDT) Temp. Windchill Dew Point Humidity Pressure Visibility Wind Dir Wind Speed Gust Speed Precip Events Conditions
12:15 AM 46.4 °F 45.2 °F 37.4 °F 71% 30.02 in 10.0 mi North 3.5 mph - N/A   Clear
12:35 AM 46.4 °F - 37.4 °F 71% 30.03 in 10.0 mi Calm Calm - N/A   Clear
12:55 AM 46.4 °F - 37.4 °F 71% 30.04 in 10.0 mi Calm Calm - N/A   Clear
1:15 AM 44.6 °F - 37.4 °F 76% 30.04 in 10.0 mi Calm Calm - N/A   Clear
1:35 AM 44.6 °F 42.2 °F 37.4 °F 76% 30.05 in 10.0 mi North 4.6 mph - N/A   Clear
1:55 AM 44.6 °F 43.1 °F 37.4 °F 76% 30.05 in 10.0 mi NNE 3.5 mph - N/A   Clear
2:15 AM 42.8 °F - 37.4 °F 81% 30.05 in 10.0 mi Calm Calm - N/A   Clear
2:35 AM 41.0 °F - 37.4 °F 87% 30.06 in 10.0 mi Calm Calm - N/A   Clear
2:55 AM 41.0 °F - 37.4 °F 87% 30.05 in 10.0 mi Calm Calm - N/A   Clear
3:15 AM 41.0 °F 39.0 °F 35.6 °F 81% 30.06 in 10.0 mi NNE 3.5 mph - N/A   Clear
3:35 AM 39.2 °F - 35.6 °F 87% 30.06 in 10.0 mi Calm Calm - N/A   Clear
3:55 AM 39.2 °F - 35.6 °F 87% 30.06 in 10.0 mi Calm Calm - N/A   Clear
4:15 AM 37.4 °F 33.8 °F 33.8 °F 87% 30.07 in 10.0 mi North 4.6 mph - N/A   Clear
4:55 AM 37.4 °F 34.9 °F 32.0 °F 81% 30.08 in 10.0 mi NE 3.5 mph - N/A   Clear
5:15 AM 37.4 °F 34.9 °F 32.0 °F 81% 30.08 in 10.0 mi NE 3.5 mph - N/A   Clear
5:35 AM 37.4 °F - 32.0 °F 81% 30.09 in 10.0 mi Calm Calm - N/A   Clear
5:55 AM 35.6 °F - 32.0 °F 87% 30.10 in 10.0 mi Calm Calm - N/A   Clear
6:15 AM 35.6 °F - 32.0 °F 87% 30.11 in 10.0 mi Calm Calm - N/A   Clear
6:35 AM 35.6 °F - 32.0 °F 87% 30.11 in 10.0 mi Calm Calm - N/A   Clear
6:55 AM 35.6 °F - 30.2 °F 81% 30.12 in 10.0 mi Calm Calm - N/A   Clear
7:15 AM 37.4 °F - 32.0 °F 81% 30.12 in 10.0 mi Calm Calm - N/A   Clear
7:35 AM 39.2 °F - 32.0 °F 75% 30.13 in 10.0 mi Calm Calm - N/A   Clear
7:55 AM 44.6 °F - 32.0 °F 61% 30.13 in 10.0 mi Calm Calm - N/A   Clear
8:15 AM 46.4 °F - 35.6 °F 66% 30.13 in 10.0 mi Calm Calm - N/A   Clear
8:35 AM 48.2 °F - 35.6 °F 62% 30.13 in 10.0 mi Calm Calm - N/A   Clear
8:55 AM 51.8 °F - 35.6 °F 54% 30.13 in 10.0 mi Calm Calm - N/A   Clear
9:15 AM 53.6 °F - 32.0 °F 44% 30.12 in 10.0 mi SSW 4.6 mph - N/A   Clear
9:35 AM 57.2 °F - 26.6 °F 31% 30.11 in 10.0 mi Calm Calm - N/A   Clear
9:55 AM 60.8 °F - 17.6 °F 19% 30.10 in 10.0 mi East 4.6 mph - N/A   Clear
10:15 AM 62.6 °F - 15.8 °F 16% 30.09 in 10.0 mi NE 3.5 mph - N/A   Clear
10:35 AM 64.4 °F - 15.8 °F 15% 30.09 in 10.0 mi East 4.6 mph - N/A   Clear
10:55 AM 66.2 °F - 15.8 °F 14% 30.08 in 10.0 mi NE 4.6 mph - N/A   Clear
11:15 AM 66.2 °F - 14.0 °F 13% 30.08 in 10.0 mi SE 4.6 mph - N/A   Clear
11:35 AM 68.0 °F - 14.0 °F 12% 30.07 in 10.0 mi ESE 5.8 mph - N/A   Clear
11:55 AM 68.0 °F - 15.8 °F 13% 30.07 in 10.0 mi SSE 5.8 mph - N/A   Clear
12:15 PM 69.8 °F - 15.8 °F 13% 30.06 in 10.0 mi Calm Calm - N/A   Clear
12:35 PM 71.6 °F - 17.6 °F 13% 30.05 in 10.0 mi NE 3.5 mph - N/A   Clear
12:55 PM 71.6 °F - 15.8 °F 12% 30.04 in 10.0 mi NE 3.5 mph - N/A   Clear
1:15 PM 71.6 °F - 15.8 °F 12% 30.04 in 10.0 mi South 4.6 mph - N/A   Clear
1:35 PM 73.4 °F - 17.6 °F 12% 30.03 in 10.0 mi ENE 6.9 mph - N/A   Clear
1:55 PM 73.4 °F - 19.4 °F 13% 30.03 in 10.0 mi ESE 4.6 mph - N/A   Clear
2:15 PM 73.4 °F - 17.6 °F 12% 30.02 in 10.0 mi SSE 5.8 mph - N/A   Clear
2:35 PM 77.0 °F - 19.4 °F 12% 30.01 in 10.0 mi ENE 4.6 mph - N/A   Clear
2:55 PM 75.2 °F - 19.4 °F 12% 30.00 in 10.0 mi SE 4.6 mph - N/A   Clear
3:15 PM 75.2 °F - 17.6 °F 11% 30.00 in 10.0 mi ENE 4.6 mph - N/A   Clear
3:35 PM 77.0 °F - 17.6 °F 11% 29.99 in 10.0 mi ENE 4.6 mph - N/A   Clear
3:55 PM 77.0 °F - 17.6 °F 11% 29.99 in 10.0 mi NE 4.6 mph - N/A   Clear
4:15 PM 77.0 °F - 17.6 °F 11% 29.98 in 10.0 mi ENE 3.5 mph - N/A   Clear
4:35 PM 77.0 °F - 17.6 °F 11% 29.97 in 10.0 mi NE 4.6 mph - N/A   Clear
4:55 PM 77.0 °F - 17.6 °F 11% 29.97 in 10.0 mi East 3.5 mph - N/A   Clear
5:15 PM 77.0 °F - 17.6 °F 11% 29.96 in 10.0 mi ENE 3.5 mph - N/A   Clear
5:35 PM 77.0 °F - 17.6 °F 11% 29.96 in 10.0 mi ENE 3.5 mph - N/A   Clear
5:55 PM 77.0 °F - 19.4 °F 12% 29.97 in 10.0 mi East 3.5 mph - N/A   Clear
6:15 PM 75.2 °F - 17.6 °F 11% 29.96 in 10.0 mi NNE 6.9 mph - N/A   Clear
6:35 PM 75.2 °F - 19.4 °F 12% 29.96 in 10.0 mi NNE 4.6 mph - N/A   Clear
6:55 PM 73.4 °F - 21.2 °F 14% 29.97 in 10.0 mi NE 5.8 mph - N/A   Clear
7:15 PM 73.4 °F - 21.2 °F 14% 29.97 in 10.0 mi NE 6.9 mph - N/A   Clear
7:35 PM 71.6 °F - 19.4 °F 14% 29.97 in 10.0 mi NE 4.6 mph - N/A   Clear
7:55 PM 68.0 °F - 21.2 °F 17% 29.98 in 10.0 mi NE 4.6 mph - N/A   Clear
8:15 PM 64.4 °F - 28.4 °F 26% 29.98 in 10.0 mi NNE 5.8 mph - N/A   Clear
8:35 PM 60.8 °F - 28.4 °F 29% 29.98 in 10.0 mi NE 4.6 mph - N/A   Clear
8:55 PM 57.2 °F - 32.0 °F 38% 29.99 in 10.0 mi NE 3.5 mph - N/A   Clear
9:15 PM 55.4 °F - 30.2 °F 38% 29.99 in 10.0 mi NE 5.8 mph - N/A   Clear
9:35 PM 53.6 °F - 32.0 °F 44% 30.00 in 10.0 mi Calm Calm - N/A   Clear
9:55 PM 53.6 °F - 28.4 °F 38% 30.01 in 10.0 mi Calm Calm - N/A   Clear
10:15 PM 50.0 °F - 30.2 °F 47% 30.01 in 10.0 mi North 4.6 mph - N/A   Clear
10:35 PM 50.0 °F - 30.2 °F 47% 30.02 in 10.0 mi North 3.5 mph - N/A   Clear
10:55 PM 48.2 °F - 32.0 °F 54% 30.02 in 10.0 mi Calm Calm - N/A   Clear
11:15 PM 48.2 °F - 30.2 °F 50% 30.02 in 10.0 mi NNE 4.6 mph - N/A   Clear
11:35 PM 48.2 °F - 32.0 °F 54% 30.02 in 10.0 mi Calm Calm - N/A   Clear
11:55 PM 46.4 °F - 32.0 °F 57% 30.02 in 10.0 mi Calm Calm - N/A   Clear